DateTimeUTC,F1_A11,F1_S11,BsB_S11,BsG_S11,BsR_S11,BbsB_S11,BbsG_S11,BbsR_S11,BaB_A11,BaG_A11,BaR_A11,Tu_S11,T_S11,Uu_S11,U_S11,P_S11,T1_A11
2021-07-23T02:00:00Z,00000200,20000000,,,,,,,0000.55,0000.08,0000.21,18.8,25.6,08.1,05.3,0665.1,31.1
2021-07-23T02:01:00Z,00000200,20000000,,,,,,,-000.09,-000.04,0000.24,18.8,25.7,07.9,05.2,0665.2,31.1
2021-07-23T02:02:00Z,00000200,20000000,,,,,,,-000.45,-000.19,-000.29,18.9,25.7,07.9,05.2,0665.2,31.1
2021-07-23T02:03:00Z,00000200,60000000,,,,,,,0000.28,-000.19,0000.04,18.9,25.7,07.9,05.2,0665.2,31.1
2021-07-23T02:04:00Z,00000200,40000000,0001.69,0001.30,0000.40,0001.12,0000.49,-000.13,0000.44,0000.50,0000.22,19.0,25.6,07.9,05.3,0666.1,31.1
2021-07-23T02:05:00Z,00000200,00000000,0002.46,0001.07,0000.59,0000.26,0000.17,0000.19,0000.63,0000.30,0000.24,19.1,25.5,07.9,05.3,0666.1,31.1
2021-07-23T02:06:00Z,00000200,00000000,0001.34,0001.29,0000.59,0000.52,0000.12,-000.02,-000.20,0000.14,0000.34,19.1,25.5,07.9,05.4,0666.2,31.1
2021-07-23T02:07:00Z,00000200,00000000,0001.58,0000.91,0000.33,0000.53,-000.06,-000.20,0000.65,0000.13,0000.25,19.0,25.5,07.9,05.3,0666.2,31.1
2021-07-23T02:08:00Z,00000200,00000000,0001.36,0001.13,0000.61,0000.26,0000.25,0000.10,-000.19,0000.12,-000.09,19.0,25.4,07.8,05.3,0666.1,31.1
2021-07-23T02:09:00Z,00000200,00000000,0002.77,0001.22,0000.85,0000.56,-000.06,0000.22,0000.29,0000.67,0000.42,19.0,25.4,07.9,05.3,0666.1,31.1
2021-07-23T02:10:00Z,00000200,00000000,0002.86,0000.64,0001.05,0000.92,0000.41,0000.48,0000.44,-000.05,-000.06,19.0,25.4,07.8,05.3,0666.1,31.1
2021-07-23T02:11:00Z,00000200,00000000,0001.50,0000.88,0000.46,0000.44,0000.13,0000.04,-000.03,0000.05,0000.13,18.9,25.4,07.7,05.2,0666.1,31.1
2021-07-23T02:12:00Z,00000200,00000000,0001.82,0001.05,0000.24,0000.67,-000.02,0000.14,0000.64,0000.92,0000.29,18.9,25.4,07.7,05.2,0666.1,31.1
2021-07-23T02:13:00Z,00000200,00000000,0002.49,0000.91,0000.72,0000.34,0000.07,0000.56,-000.08,-000.06,0000.16,18.9,25.3,07.7,05.2,0666.1,31.1
2021-07-23T02:14:00Z,00000200,00000000,0001.60,0000.81,0001.02,0000.44,0000.06,0000.22,0000.89,0000.51,0000.52,18.9,25.3,07.6,05.2,0666.1,31.1
2021-07-23T02:15:00Z,00000200,00000000,0001.97,0000.94,0000.47,0000.72,-000.15,0000.17,-000.26,-000.09,0000.03,19.0,25.4,07.6,05.1,0666.1,31.1
2021-07-23T02:16:00Z,00000200,00000000,0002.22,0000.56,0000.91,-000.18,0000.11,0000.40,0000.73,0000.55,0000.36,19.0,25.4,07.6,05.2,0666.1,31.1
2021-07-23T02:17:00Z,00000200,00000000,0002.00,0000.90,0000.78,0000.62,0000.35,0000.18,0000.24,0000.23,0000.16,19.1,25.4,07.5,05.1,0666.1,31.1
2021-07-23T02:18:00Z,00000200,00000000,0002.39,0000.97,0000.86,0000.38,0000.24,0000.35,0000.32,0000.21,0000.22,19.1,25.4,07.7,05.2,0666.1,31.1
2021-07-23T02:19:00Z,00000200,00000000,0002.07,0000.80,0000.60,0000.51,0000.35,0000.13,0000.33,0000.13,-000.08,19.1,25.4,07.6,05.1,0666.1,31.1
2021-07-23T02:20:00Z,00000200,00000000,0001.88,0000.95,0000.75,0000.17,0000.16,0000.32,-000.19,0000.25,0000.12,19.0,25.4,07.4,05.0,0666.1,31.1
2021-07-23T02:21:00Z,00000200,00000000,0001.83,0000.89,0000.71,0001.15,0000.30,-000.10,0000.36,0000.16,0000.38,19.0,25.4,07.3,05.0,0666.1,31.1
2021-07-23T02:22:00Z,00000200,00000000,0001.51,0000.87,0000.66,0000.18,0000.25,0000.05,0000.20,0000.16,-000.22,19.0,25.4,07.4,05.0,0666.1,31.1
2021-07-23T02:23:00Z,00000200,00000000,0002.26,0001.29,0000.87,-000.24,0000.12,0000.55,0000.50,-000.03,0000.71,19.0,25.4,07.4,05.0,0666.1,31.1
2021-07-23T02:24:00Z,00000200,00000000,0002.48,0000.81,0000.76,0000.92,-000.04,0000.18,0000.19,0000.65,0000.19,18.9,25.3,07.3,05.0,0666.1,31.1
2021-07-23T02:25:00Z,00000200,00000000,0002.45,0000.82,0000.69,0000.52,0000.43,0000.15,0000.17,0000.31,0000.12,18.9,25.4,07.4,05.0,0666.1,31.1
2021-07-23T02:26:00Z,00000200,00000000,0001.56,0001.13,0000.87,0000.08,0000.13,0000.56,0000.56,0000.34,0000.59,18.9,25.3,07.4,05.0,0666.1,31.1
2021-07-23T02:27:00Z,00000200,00000000,0001.59,0000.76,0000.83,0000.34,0000.36,0000.09,-000.05,0000.19,0000.07,18.9,25.3,07.3,04.9,0666.1,31.1
2021-07-23T02:28:00Z,00000200,00000000,0001.99,0001.08,0000.61,-000.06,0000.17,0000.27,0000.38,0000.55,-000.05,18.9,25.3,07.4,05.0,0666.1,31.1
2021-07-23T02:29:00Z,00000200,00000000,0002.29,0000.91,0000.54,-000.29,0000.46,0000.18,0000.27,0000.03,0000.35,18.9,25.3,07.4,05.0,0666.1,31.1
2021-07-23T02:30:00Z,00000200,00000000,0001.54,0001.30,0000.50,0000.11,0000.24,0000.31,0000.58,0000.64,0000.43,18.9,25.3,07.4,05.0,0666.0,31.1
2021-07-23T02:31:00Z,00000200,00000000,0002.17,0000.85,0000.67,0000.49,0000.34,0000.37,0000.20,-000.09,-000.21,19.0,25.4,07.4,05.0,0666.0,31.1
2021-07-23T02:32:00Z,00000200,00000000,0001.68,0000.94,0000.87,0000.17,0000.06,0000.41,0000.17,0000.56,0000.57,19.0,25.4,07.3,05.0,0666.1,31.1
2021-07-23T02:33:00Z,00000200,00000000,0001.72,0000.63,0000.95,-000.18,0000.09,0000.22,0000.67,0000.06,0000.20,19.0,25.4,07.2,04.9,0666.0,31.1
2021-07-23T02:34:00Z,00000200,00000000,0001.82,0000.96,0000.52,0000.07,0000.20,0000.05,-000.14,0000.27,0000.38,19.0,25.4,07.3,04.9,0666.0,31.1
2021-07-23T02:35:00Z,00000200,00000000,0001.84,0000.82,0000.75,0000.47,0000.16,0000.29,0000.53,0000.23,0000.09,19.0,25.4,07.3,05.0,0666.0,31.1
2021-07-23T02:36:00Z,00000200,00000000,0001.66,0000.81,0000.81,0000.45,0000.17,0000.16,0000.29,0000.12,-000.05,18.9,25.3,07.3,04.9,0666.0,31.1
2021-07-23T02:37:00Z,00000200,00000000,0001.82,0000.92,0000.82,0000.53,0000.18,0000.33,0000.15,0000.43,0000.07,18.9,25.3,07.3,04.9,0666.0,31.1
2021-07-23T02:38:00Z,00000200,00000000,0001.72,0000.86,0000.78,0000.41,0000.35,0000.34,0000.45,0000.20,0000.29,18.9,25.3,07.3,05.0,0666.0,31.1
2021-07-23T02:39:00Z,00000200,00000000,0002.19,0000.73,0000.63,0000.25,0000.02,0000.31,0000.22,0000.51,0000.60,18.9,25.3,07.4,05.0,0666.0,31.1
2021-07-23T02:40:00Z,00000200,00000000,0001.84,0000.97,0000.48,0000.32,0000.07,0000.13,0000.45,-000.14,0000.08,18.8,25.3,07.3,04.9,0666.0,31.1
2021-07-23T02:41:00Z,00000200,00000000,0001.30,0000.75,0000.65,0000.21,0000.33,0000.31,0000.34,0000.68,0000.44,18.8,25.3,07.5,05.0,0666.0,31.1
2021-07-23T02:42:00Z,00000200,00000000,0002.42,0000.78,0000.86,0000.49,0000.08,0000.08,0000.59,-000.10,0000.14,18.8,25.3,07.6,05.1,0666.0,31.1
2021-07-23T02:43:00Z,00000200,00000000,0002.20,0000.55,0000.56,0000.04,0000.02,-000.32,0000.39,0001.17,0000.47,18.8,25.2,07.8,05.3,0666.0,31.1
2021-07-23T02:44:00Z,00000200,00000000,0001.34,0000.98,0000.60,0000.76,-000.05,0000.58,0000.23,0000.00,0000.38,18.8,25.2,07.7,05.2,0666.0,31.1
2021-07-23T02:45:00Z,00000200,00000000,0001.45,0001.16,0000.58,0000.48,0000.12,-000.12,0000.37,0000.44,0000.15,18.9,25.3,07.7,05.2,0666.0,31.1
2021-07-23T02:46:00Z,00000200,00000000,0001.10,0000.87,0000.39,0000.27,0000.40,0000.21,0000.35,0000.24,0000.16,18.9,25.3,07.7,05.2,0666.0,31.1
2021-07-23T02:47:00Z,00000200,00000000,0001.52,0001.07,0000.83,0000.21,0000.29,0000.17,0000.50,0000.59,0000.20,18.9,25.3,07.8,05.3,0666.0,31.1
2021-07-23T02:48:00Z,00000200,00000000,0001.91,0000.50,0000.72,0000.34,-000.04,0000.11,0000.30,0000.26,0000.20,18.9,25.3,07.8,05.3,0666.0,31.1
2021-07-23T02:49:00Z,00000200,00000000,0001.19,0001.11,0000.71,-000.26,0000.24,0000.27,0000.00,0000.27,0000.26,18.9,25.3,07.8,05.3,0666.0,31.1
2021-07-23T02:50:00Z,00000200,00000000,0002.16,0001.20,0000.90,0000.24,0000.28,0000.39,0000.17,0000.03,0000.20,18.9,25.3,07.9,05.4,0666.0,31.1
2021-07-23T02:51:00Z,00000200,00000000,0000.99,0000.89,0000.50,0000.18,0000.16,0000.12,0000.74,0000.34,0000.44,18.9,25.2,07.8,05.3,0666.0,31.1
2021-07-23T02:52:00Z,00000200,00000000,0001.16,0001.09,0000.47,0000.37,0000.42,0000.05,0000.14,0000.08,0000.41,18.8,25.2,08.0,05.4,0666.0,31.1
2021-07-23T02:53:00Z,00000200,00000000,0002.02,0000.88,0000.71,-000.14,0000.08,0000.34,0000.35,0000.52,0000.04,18.8,25.2,07.9,05.3,0666.0,31.1
2021-07-23T02:54:00Z,00000200,00000000,0001.24,0000.69,0000.75,0000.76,0000.08,0000.26,0000.26,0000.50,-000.07,18.8,25.2,08.0,05.4,0666.0,31.1
2021-07-23T02:55:00Z,00000200,00000000,0001.43,0000.87,0000.44,0000.54,0000.32,0000.05,-000.05,0000.03,0000.26,18.8,25.2,07.9,05.4,0666.0,31.1
2021-07-23T02:56:00Z,00000200,00000000,0000.99,0000.69,0000.52,0000.22,0000.02,0000.20,0000.44,-000.11,0000.10,18.8,25.2,07.9,05.4,0666.0,31.1
2021-07-23T02:57:00Z,00000200,40000000,,,,,,,0000.02,0000.18,0000.01,18.8,25.2,08.0,05.4,0666.0,31.1
2021-07-23T02:58:00Z,00000200,60000000,,,,,,,-000.21,0000.10,0000.21,18.5,25.3,07.9,05.2,0665.0,31.1
2021-07-23T02:59:00Z,00000200,20000000,,,,,,,0000.00,0000.09,0000.16,18.5,25.4,08.0,05.2,0665.0,31.1
